Location: Menands
(42.6920°N, 73.7246°W)
Time: 21:25:23
(UTC+00:00)

SKYMED 2 - Pass Details

Date: 18 February 2026
Orbit: 622 x 623 km, 97.9° (Epoch: 8 March)

Event Time Altitude Azimuth Distance (km) Brightness Sun altitude
Rises 23:18:16 0° 9° (N) 2,911 6.8 -9.4°
Reaches altitude 10° 23:20:28 10° 6° (N) 2,000 6.1 -9.8°
Maximum altitude 23:24:46 62° 286° (WNW) 705 4.2 -10.6°
Drops below altitude 10° 23:29:01 10° 206° (SSW) 1,985 6.6 -11.4°
Sets 23:31:13 0° 203° (SSW) 2,886 7.4 -11.8°
